Time,TemperatureF,DewpointF,PressureIn,WindDirection,WindDirectionDegrees,WindSpeedMPH,WindSpeedGustMPH,Humidity,HourlyPrecipIn,Conditions,Clouds,dailyrainin,SoftwareType,DateUTC
2013-03-31 00:00:00,39.8,22.6,30.03,WNW,301,0.0,0.0,50,0.00,,CLR,0.00,VWS V14.00,2013-03-31 04:00:00,
2013-03-31 00:06:00,40.1,23.0,30.03,WNW,301,0.0,0.0,50,0.00,,CLR,0.00,VWS V14.00,2013-03-31 04:06:00,
2013-03-31 00:11:00,39.9,22.8,30.03,WNW,301,0.0,0.0,50,0.00,,CLR,0.00,VWS V14.00,2013-03-31 04:11:00,
2013-03-31 00:16:00,39.9,22.8,30.03,NNE,27,3.0,3.2,50,0.00,,CLR,0.00,VWS V14.00,2013-03-31 04:16:00,
2013-03-31 00:21:00,39.8,22.6,30.00,NE,49,3.0,3.2,50,0.00,,CLR,0.00,VWS V14.00,2013-03-31 04:21:00,
2013-03-31 00:26:00,39.6,22.9,30.00,East,80,3.0,3.2,51,0.00,,CLR,0.00,VWS V14.00,2013-03-31 04:26:00,
2013-03-31 00:31:00,39.6,22.9,30.00,ENE,60,3.0,3.2,51,0.00,,CLR,0.00,VWS V14.00,2013-03-31 04:31:00,
2013-03-31 00:36:00,39.6,22.9,30.00,ESE,115,0.0,0.0,51,0.00,,CLR,0.00,VWS V14.00,2013-03-31 04:36:00,
2013-03-31 00:41:00,39.8,23.1,30.00,ESE,115,0.0,0.0,51,0.00,,CLR,0.00,VWS V14.00,2013-03-31 04:41:00,
2013-03-31 00:46:00,39.8,23.1,30.00,ESE,115,0.0,0.0,51,0.00,,CLR,0.00,VWS V14.00,2013-03-31 04:46:00,
2013-03-31 00:51:00,39.8,23.1,30.00,SE,126,0.0,0.0,51,0.00,,CLR,0.00,VWS V14.00,2013-03-31 04:51:00,
2013-03-31 00:56:00,39.6,22.9,30.00,SE,126,0.0,0.0,51,0.00,,CLR,0.00,VWS V14.00,2013-03-31 04:56:00,
2013-03-31 01:01:00,39.6,22.9,30.00,SE,126,0.0,0.0,51,0.00,,CLR,0.00,VWS V14.00,2013-03-31 05:01:00,
2013-03-31 01:06:00,39.6,22.9,30.00,SE,126,2.5,2.7,51,0.00,,CLR,0.00,VWS V14.00,2013-03-31 05:06:00,
2013-03-31 01:12:00,39.4,23.2,30.00,SE,126,2.5,2.7,52,0.00,,CLR,0.00,VWS V14.00,2013-03-31 05:12:00,
2013-03-31 01:17:00,39.2,23.5,30.00,SE,126,3.0,3.8,53,0.00,,CLR,0.00,VWS V14.00,2013-03-31 05:17:00,
2013-03-31 01:22:00,39.4,23.2,30.00,SE,126,2.5,2.7,52,0.00,,CLR,0.00,VWS V14.00,2013-03-31 05:22:00,
2013-03-31 01:27:00,39.6,23.4,30.00,SE,126,3.0,3.2,52,0.00,,CLR,0.00,VWS V14.00,2013-03-31 05:27:00,
2013-03-31 01:32:00,39.6,23.4,30.00,SE,126,0.0,2.7,52,0.00,,CLR,0.00,VWS V14.00,2013-03-31 05:32:00,
2013-03-31 01:37:00,39.0,23.8,30.00,WSW,240,0.0,0.0,54,0.00,,CLR,0.00,VWS V14.00,2013-03-31 05:37:00,
2013-03-31 01:42:00,38.8,24.0,30.00,WSW,240,0.0,0.0,55,0.00,,CLR,0.00,VWS V14.00,2013-03-31 05:42:00,
2013-03-31 01:47:00,38.8,24.0,30.00,WSW,240,0.0,0.0,55,0.00,,CLR,0.00,VWS V14.00,2013-03-31 05:47:00,
2013-03-31 01:52:00,38.6,23.9,30.00,WSW,240,0.0,0.0,55,0.00,,CLR,0.00,VWS V14.00,2013-03-31 05:52:00,
2013-03-31 01:57:00,38.1,24.2,30.00,WSW,240,0.0,0.0,57,0.00,,CLR,0.00,VWS V14.00,2013-03-31 05:57:00,
2013-03-31 02:02:00,38.3,24.4,30.00,WSW,240,0.0,0.0,57,0.00,,CLR,0.00,VWS V14.00,2013-03-31 06:02:00,
2013-03-31 02:07:00,38.5,24.6,30.00,WSW,240,0.0,0.0,57,0.00,,OVC110,0.00,VWS V14.00,2013-03-31 06:07:00,
2013-03-31 02:12:00,38.5,24.1,30.00,WSW,240,0.0,0.0,56,0.00,,OVC110,0.00,VWS V14.00,2013-03-31 06:12:00,
2013-03-31 02:17:00,38.5,24.1,29.97,WSW,240,0.0,0.0,56,0.00,,OVC110,0.00,VWS V14.00,2013-03-31 06:17:00,
2013-03-31 02:22:00,38.5,24.1,29.97,WSW,240,0.0,0.0,56,0.00,,OVC110,0.00,VWS V14.00,2013-03-31 06:22:00,
2013-03-31 02:28:00,38.3,24.4,29.97,WSW,240,0.0,0.0,57,0.00,,OVC110,0.00,VWS V14.00,2013-03-31 06:28:00,
2013-03-31 02:33:00,38.3,24.4,29.97,WSW,240,0.0,0.0,57,0.00,,OVC110,0.00,VWS V14.00,2013-03-31 06:33:00,
2013-03-31 02:38:00,38.3,24.8,29.97,WSW,240,0.0,0.0,58,0.00,,OVC110,0.00,VWS V14.00,2013-03-31 06:38:00,
2013-03-31 02:43:00,38.3,24.8,29.97,WSW,240,0.0,0.0,58,0.00,,OVC110,0.00,VWS V14.00,2013-03-31 06:43:00,
2013-03-31 02:48:00,38.1,24.6,29.97,WSW,240,0.0,0.0,58,0.00,,OVC110,0.00,VWS V14.00,2013-03-31 06:48:00,
2013-03-31 02:53:00,37.9,25.3,29.97,WSW,240,0.0,0.0,60,0.00,,OVC110,0.00,VWS V14.00,2013-03-31 06:53:00,
2013-03-31 02:58:00,37.9,24.9,29.97,WSW,240,0.0,0.0,59,0.00,,OVC110,0.00,VWS V14.00,2013-03-31 06:58:00,
2013-03-31 03:03:00,38.1,25.0,29.97,WSW,240,0.0,0.0,59,0.00,,OVC100,0.00,VWS V14.00,2013-03-31 07:03:00,
2013-03-31 03:08:00,38.1,25.0,29.97,WSW,240,0.0,0.0,59,0.00,,OVC100,0.00,VWS V14.00,2013-03-31 07:08:00,
2013-03-31 03:13:00,38.1,25.0,29.97,WSW,240,0.0,0.0,59,0.00,,OVC100,0.00,VWS V14.00,2013-03-31 07:13:00,
2013-03-31 03:18:00,38.1,25.0,29.97,WSW,240,0.0,0.0,59,0.00,,OVC100,0.00,VWS V14.00,2013-03-31 07:18:00,
2013-03-31 03:23:00,37.9,24.9,29.97,WSW,240,2.5,2.7,59,0.00,,OVC100,0.00,VWS V14.00,2013-03-31 07:23:00,
2013-03-31 03:29:00,37.7,25.1,29.97,WSW,240,0.0,0.0,60,0.00,,OVC100,0.00,VWS V14.00,2013-03-31 07:29:00,
2013-03-31 03:34:00,37.9,25.3,29.94,WSW,240,0.0,0.0,60,0.00,,OVC100,0.00,VWS V14.00,2013-03-31 07:34:00,
2013-03-31 03:39:00,37.9,25.7,29.94,WSW,240,0.0,0.0,61,0.00,,OVC100,0.00,VWS V14.00,2013-03-31 07:39:00,
2013-03-31 03:44:00,38.1,25.8,29.94,West,274,3.9,4.3,61,0.00,,OVC100,0.00,VWS V14.00,2013-03-31 07:44:00,
2013-03-31 03:49:00,37.5,27.9,29.94,West,270,0.0,3.2,68,0.00,,OVC100,0.00,VWS V14.00,2013-03-31 07:49:00,
2013-03-31 03:54:00,37.5,27.6,29.94,West,270,0.0,0.0,67,0.00,,OVC100,0.00,VWS V14.00,2013-03-31 07:54:00,
2013-03-31 03:59:00,37.7,27.4,29.94,West,270,0.0,0.0,66,0.00,,OVC100,0.00,VWS V14.00,2013-03-31 07:59:00,
2013-03-31 04:04:00,37.5,27.2,29.94,West,270,0.0,0.0,66,0.00,,OVC085,0.00,VWS V14.00,2013-03-31 08:04:00,
2013-03-31 04:09:00,37.5,26.8,29.94,West,270,0.0,0.0,65,0.00,,OVC085,0.00,VWS V14.00,2013-03-31 08:09:00,
2013-03-31 04:14:00,37.7,27.0,29.94,West,270,3.0,3.2,65,0.00,,OVC085,0.00,VWS V14.00,2013-03-31 08:14:00,
2013-03-31 04:19:00,37.5,27.6,29.94,West,270,0.0,0.0,67,0.00,,OVC085,0.00,VWS V14.00,2013-03-31 08:19:00,
2013-03-31 04:24:00,37.7,28.1,29.94,West,270,0.0,0.0,68,0.00,,OVC085,0.00,VWS V14.00,2013-03-31 08:24:00,
2013-03-31 04:29:00,37.7,27.4,29.94,West,270,0.0,0.0,66,0.00,,OVC085,0.00,VWS V14.00,2013-03-31 08:29:00,
2013-03-31 04:34:00,37.5,27.9,29.94,West,270,0.0,0.0,68,0.00,,OVC085,0.00,VWS V14.00,2013-03-31 08:34:00,
2013-03-31 04:39:00,37.7,28.1,29.94,West,270,0.0,0.0,68,0.00,,OVC085,0.00,VWS V14.00,2013-03-31 08:39:00,
2013-03-31 04:44:00,37.7,28.1,29.94,West,270,0.0,0.0,68,0.00,,OVC085,0.00,VWS V14.00,2013-03-31 08:44:00,
2013-03-31 04:49:00,37.7,28.1,29.94,West,270,2.5,3.2,68,0.00,,OVC085,0.00,VWS V14.00,2013-03-31 08:49:00,
2013-03-31 04:54:00,37.7,28.5,29.94,West,270,0.0,0.0,69,0.00,,OVC085,0.00,VWS V14.00,2013-03-31 08:54:00,
2013-03-31 04:59:00,37.7,28.1,29.94,West,270,0.0,0.0,68,0.00,,OVC085,0.00,VWS V14.00,2013-03-31 08:59:00,
2013-03-31 05:04:00,37.7,27.8,29.91,West,270,0.0,0.0,67,0.00,,-RA,0.00,VWS V14.00,2013-03-31 09:04:00,
2013-03-31 05:09:00,37.5,27.6,29.91,West,270,0.0,0.0,67,0.00,,-RA,0.00,VWS V14.00,2013-03-31 09:09:00,
2013-03-31 05:14:00,37.5,27.6,29.91,West,270,0.0,0.0,67,0.00,,-RA,0.00,VWS V14.00,2013-03-31 09:14:00,
2013-03-31 05:20:00,37.5,27.6,29.91,West,270,0.0,0.0,67,0.00,,-RA,0.00,VWS V14.00,2013-03-31 09:20:00,
2013-03-31 05:25:00,37.5,27.2,29.91,SSW,203,3.9,4.3,66,0.00,,-RA,0.00,VWS V14.00,2013-03-31 09:25:00,
2013-03-31 05:30:00,37.5,27.6,29.91,South,179,3.0,3.2,67,0.00,,-RA,0.00,VWS V14.00,2013-03-31 09:30:00,
2013-03-31 05:35:00,37.5,27.9,29.91,South,170,3.0,3.2,68,0.00,,-RA,0.00,VWS V14.00,2013-03-31 09:35:00,
2013-03-31 05:40:00,37.5,27.9,29.91,SSW,194,3.0,3.8,68,0.00,,-RA,0.00,VWS V14.00,2013-03-31 09:40:00,
2013-03-31 05:45:00,37.5,28.3,29.91,SSW,194,0.0,0.0,69,0.00,,-RA,0.00,VWS V14.00,2013-03-31 09:45:00,
2013-03-31 05:50:00,37.5,27.9,29.91,SSW,194,0.0,0.0,68,0.00,,-RA,0.00,VWS V14.00,2013-03-31 09:50:00,
2013-03-31 05:55:00,37.5,28.3,29.91,ESE,104,3.0,3.8,69,0.00,,-RA,0.00,VWS V14.00,2013-03-31 09:55:00,
2013-03-31 06:00:00,37.3,29.1,29.91,East,81,3.0,3.2,72,0.00,,-RA,0.00,VWS V14.00,2013-03-31 10:00:00,
2013-03-31 06:05:00,37.5,29.3,29.91,East,81,3.0,3.2,72,0.00,,RA,0.00,VWS V14.00,2013-03-31 10:05:00,
2013-03-31 06:10:00,37.2,29.6,29.91,East,81,2.5,2.7,74,0.00,,RA,0.00,VWS V14.00,2013-03-31 10:10:00,
2013-03-31 06:15:00,37.2,30.0,29.91,East,81,0.0,0.0,75,0.00,,RA,0.00,VWS V14.00,2013-03-31 10:15:00,
2013-03-31 06:20:00,37.0,30.1,29.91,East,81,3.0,3.2,76,0.00,,RA,0.00,VWS V14.00,2013-03-31 10:20:00,
2013-03-31 06:25:00,37.0,30.1,29.91,East,81,2.5,2.7,76,0.01,,RA,0.01,VWS V14.00,2013-03-31 10:25:00,
2013-03-31 06:30:00,37.0,30.4,29.91,East,81,0.0,0.0,77,0.01,,RA,0.01,VWS V14.00,2013-03-31 10:30:00,
2013-03-31 06:36:00,37.0,30.8,29.91,East,81,0.0,0.0,78,0.01,,RA,0.01,VWS V14.00,2013-03-31 10:36:00,
2013-03-31 06:41:00,36.8,30.9,29.91,East,81,2.5,3.2,79,0.01,,RA,0.01,VWS V14.00,2013-03-31 10:41:00,
2013-03-31 06:46:00,36.8,31.5,29.91,East,81,0.0,0.0,81,0.01,,RA,0.01,VWS V14.00,2013-03-31 10:46:00,
2013-03-31 06:51:00,36.6,31.3,29.91,East,81,0.0,0.0,81,0.02,,RA,0.02,VWS V14.00,2013-03-31 10:51:00,
2013-03-31 06:56:00,36.8,31.5,29.91,East,81,0.0,0.0,81,0.02,,RA,0.02,VWS V14.00,2013-03-31 10:56:00,
2013-03-31 07:01:00,36.8,31.5,29.91,East,81,0.0,0.0,81,0.03,,RA,0.03,VWS V14.00,2013-03-31 11:01:00,
2013-03-31 07:06:00,36.8,31.8,29.91,East,81,0.0,0.0,82,0.03,,OVC060,0.03,VWS V14.00,2013-03-31 11:06:00,
2013-03-31 07:11:00,36.8,32.1,29.91,East,81,0.0,0.0,83,0.04,,OVC060,0.04,VWS V14.00,2013-03-31 11:11:00,
2013-03-31 07:16:00,36.8,32.1,29.91,East,81,0.0,0.0,83,0.05,,OVC060,0.05,VWS V14.00,2013-03-31 11:16:00,
2013-03-31 07:21:00,36.6,32.2,29.91,East,81,0.0,2.7,84,0.05,,OVC060,0.05,VWS V14.00,2013-03-31 11:21:00,
2013-03-31 07:26:00,36.8,32.7,29.91,East,81,0.0,0.0,85,0.05,,OVC060,0.06,VWS V14.00,2013-03-31 11:26:00,
2013-03-31 07:31:00,36.8,32.7,29.91,SSW,206,3.9,4.3,85,0.07,,OVC060,0.08,VWS V14.00,2013-03-31 11:31:00,
2013-03-31 07:37:00,36.6,32.8,29.91,SW,216,0.0,0.0,86,0.08,,OVC060,0.09,VWS V14.00,2013-03-31 11:37:00,
2013-03-31 07:42:00,36.8,33.3,29.91,SW,216,0.0,0.0,87,0.09,,OVC060,0.10,VWS V14.00,2013-03-31 11:42:00,
2013-03-31 07:47:00,36.8,33.3,29.91,SW,216,0.0,0.0,87,0.11,,OVC060,0.12,VWS V14.00,2013-03-31 11:47:00,
2013-03-31 07:52:00,36.8,33.3,29.91,SW,216,0.0,0.0,87,0.11,,OVC060,0.13,VWS V14.00,2013-03-31 11:52:00,
2013-03-31 07:57:00,36.6,33.1,29.91,SW,216,0.0,0.0,87,0.12,,OVC060,0.14,VWS V14.00,2013-03-31 11:57:00,
2013-03-31 08:02:00,36.8,33.6,29.88,SW,216,0.0,0.0,88,0.11,,OVC060,0.14,VWS V14.00,2013-03-31 12:02:00,
2013-03-31 08:07:00,36.8,33.6,29.88,SW,216,2.5,2.7,88,0.11,,OVC039,0.14,VWS V14.00,2013-03-31 12:07:00,
2013-03-31 08:12:00,36.8,33.6,29.88,SW,216,0.0,0.0,88,0.11,,OVC039,0.15,VWS V14.00,2013-03-31 12:12:00,
2013-03-31 08:17:00,36.8,33.6,29.88,SW,216,0.0,0.0,88,0.10,,OVC039,0.15,VWS V14.00,2013-03-31 12:17:00,
2013-03-31 08:22:00,37.0,34.0,29.88,SW,216,0.0,0.0,89,0.10,,OVC039,0.15,VWS V14.00,2013-03-31 12:22:00,
2013-03-31 08:27:00,37.0,34.0,29.88,SW,216,2.5,2.7,89,0.09,,OVC039,0.15,VWS V14.00,2013-03-31 12:27:00,
2013-03-31 08:32:00,37.0,34.0,29.88,SW,216,2.5,2.7,89,0.07,,OVC039,0.15,VWS V14.00,2013-03-31 12:32:00,
2013-03-31 08:37:00,37.2,34.2,29.88,SW,216,2.5,3.2,89,0.06,,OVC039,0.15,VWS V14.00,2013-03-31 12:37:00,
2013-03-31 08:42:00,37.2,34.2,29.88,SW,216,0.0,0.0,89,0.06,,OVC039,0.15,VWS V14.00,2013-03-31 12:42:00,
2013-03-31 08:47:00,37.3,34.7,29.85,SW,216,0.0,2.7,90,0.05,,OVC039,0.15,VWS V14.00,2013-03-31 12:47:00,
2013-03-31 08:52:00,37.5,34.9,29.85,SW,216,2.5,3.2,90,0.02,,OVC039,0.15,VWS V14.00,2013-03-31 12:52:00,
2013-03-31 08:57:00,37.5,34.9,29.85,SW,216,0.0,0.0,90,0.02,,OVC039,0.15,VWS V14.00,2013-03-31 12:57:00,
2013-03-31 09:02:00,37.5,34.9,29.85,WSW,237,2.5,2.7,90,0.01,,OVC031,0.15,VWS V14.00,2013-03-31 13:02:00,
2013-03-31 09:07:00,37.5,35.1,29.85,West,271,0.0,2.7,91,0.02,,OVC031,0.16,VWS V14.00,2013-03-31 13:07:00,
2013-03-31 09:13:00,37.3,35.2,29.85,West,271,0.0,0.0,92,0.01,,OVC031,0.16,VWS V14.00,2013-03-31 13:13:00,
2013-03-31 09:18:00,37.5,35.1,29.85,West,261,0.0,0.0,91,0.01,,OVC027,0.16,VWS V14.00,2013-03-31 13:18:00,
2013-03-31 09:23:00,37.5,35.1,29.85,SSW,202,2.5,3.2,91,0.01,,OVC027,0.16,VWS V14.00,2013-03-31 13:23:00,
2013-03-31 09:28:00,37.7,35.3,29.85,SSW,195,0.0,2.7,91,0.01,,OVC027,0.16,VWS V14.00,2013-03-31 13:28:00,
2013-03-31 09:33:00,37.7,35.3,29.85,ESE,119,2.5,3.2,91,0.01,,OVC027,0.16,VWS V14.00,2013-03-31 13:33:00,
2013-03-31 09:38:00,37.7,35.3,29.85,ESE,119,0.0,0.0,91,0.01,,OVC027,0.16,VWS V14.00,2013-03-31 13:38:00,
2013-03-31 09:43:00,37.7,35.3,29.85,ESE,119,0.0,0.0,91,0.01,,OVC027,0.16,VWS V14.00,2013-03-31 13:43:00,
2013-03-31 09:48:00,37.9,35.5,29.85,ESE,119,0.0,0.0,91,0.01,,OVC027,0.16,VWS V14.00,2013-03-31 13:48:00,
2013-03-31 09:53:00,37.9,35.2,29.85,ESE,119,0.0,0.0,90,0.01,,OVC027,0.16,VWS V14.00,2013-03-31 13:53:00,
2013-03-31 09:58:00,37.9,35.5,29.85,ESE,119,0.0,0.0,91,0.01,,OVC027,0.16,VWS V14.00,2013-03-31 13:58:00,
2013-03-31 10:03:00,37.7,35.6,29.85,NNW,333,3.0,3.2,92,0.02,,,0.17,VWS V14.00,2013-03-31 14:03:00,
2013-03-31 10:08:00,37.9,36.0,29.85,NNW,333,3.0,3.2,93,0.01,,,0.17,VWS V14.00,2013-03-31 14:08:00,
2013-03-31 10:13:00,38.1,36.2,29.85,NNW,333,2.5,2.7,93,0.01,,,0.17,VWS V14.00,2013-03-31 14:13:00,
2013-03-31 10:19:00,38.3,36.4,29.85,NNW,333,0.0,0.0,93,0.01,,,0.17,VWS V14.00,2013-03-31 14:19:00,
2013-03-31 10:24:00,38.3,36.4,29.85,NNW,333,0.0,0.0,93,0.01,,,0.17,VWS V14.00,2013-03-31 14:24:00,
2013-03-31 10:29:00,38.6,36.8,29.85,NNW,333,0.0,0.0,93,0.01,,,0.17,VWS V14.00,2013-03-31 14:29:00,
2013-03-31 10:34:00,38.6,36.8,29.82,NNW,333,0.0,0.0,93,0.01,,,0.17,VWS V14.00,2013-03-31 14:34:00,
2013-03-31 10:39:00,38.8,37.0,29.82,NNW,333,3.0,3.2,93,0.01,,,0.17,VWS V14.00,2013-03-31 14:39:00,
2013-03-31 10:44:00,38.8,37.2,29.82,NNW,333,0.0,0.0,94,0.01,,,0.17,VWS V14.00,2013-03-31 14:44:00,
2013-03-31 10:49:00,38.8,37.2,29.82,NNW,333,0.0,0.0,94,0.01,,-RA,0.17,VWS V14.00,2013-03-31 14:49:00,
2013-03-31 10:54:00,39.0,37.4,29.82,NNW,333,0.0,0.0,94,0.01,,-RA,0.17,VWS V14.00,2013-03-31 14:54:00,
2013-03-31 10:59:00,39.2,37.6,29.82,NNW,333,0.0,0.0,94,0.02,,-RA,0.18,VWS V14.00,2013-03-31 14:59:00,
2013-03-31 11:04:00,39.2,37.6,29.82,NNW,333,0.0,0.0,94,0.01,,OVC008,0.18,VWS V14.00,2013-03-31 15:04:00,
2013-03-31 11:09:00,39.4,37.5,29.82,NNW,333,0.0,0.0,93,0.01,,OVC008,0.18,VWS V14.00,2013-03-31 15:09:00,
2013-03-31 11:14:00,39.6,37.7,29.82,NNW,333,0.0,0.0,93,0.01,,OVC008,0.18,VWS V14.00,2013-03-31 15:14:00,
2013-03-31 11:19:00,39.6,38.0,29.82,NNW,333,0.0,0.0,94,0.01,,OVC008,0.18,VWS V14.00,2013-03-31 15:19:00,
2013-03-31 11:24:00,39.9,38.3,29.82,NNW,333,0.0,2.7,94,0.01,,OVC008,0.18,VWS V14.00,2013-03-31 15:24:00,
2013-03-31 11:29:00,39.9,38.3,29.82,NNW,333,0.0,0.0,94,0.01,,OVC008,0.18,VWS V14.00,2013-03-31 15:29:00,
2013-03-31 11:34:00,40.1,38.5,29.82,NNW,333,0.0,0.0,94,0.01,,OVC008,0.18,VWS V14.00,2013-03-31 15:34:00,
2013-03-31 11:39:00,40.5,38.9,29.82,NNW,333,0.0,0.0,94,0.02,,OVC008,0.19,VWS V14.00,2013-03-31 15:39:00,
2013-03-31 11:44:00,40.7,39.4,29.82,NNW,333,0.0,0.0,95,0.02,,OVC008,0.19,VWS V14.00,2013-03-31 15:44:00,
2013-03-31 11:49:00,40.9,39.5,29.82,NNW,333,0.0,0.0,95,0.02,,OVC008,0.19,VWS V14.00,2013-03-31 15:49:00,
2013-03-31 11:55:00,41.0,39.7,29.82,NNW,333,0.0,0.0,95,0.03,,OVC008,0.20,VWS V14.00,2013-03-31 15:55:00,
2013-03-31 11:59:00,41.0,39.7,29.82,NNW,333,0.0,0.0,95,0.02,,OVC008,0.20,VWS V14.00,2013-03-31 15:59:00,
2013-03-31 12:05:00,41.2,39.9,29.82,NNW,333,0.0,0.0,95,0.02,,-RA,0.20,VWS V14.00,2013-03-31 16:05:00,
2013-03-31 12:10:00,41.4,40.1,29.82,NNW,333,0.0,0.0,95,0.02,,-RA,0.20,VWS V14.00,2013-03-31 16:10:00,
2013-03-31 12:15:00,41.6,40.3,29.82,NNW,333,0.0,0.0,95,0.02,,-RA,0.20,VWS V14.00,2013-03-31 16:15:00,
2013-03-31 12:20:00,41.8,40.5,29.82,West,277,3.0,3.2,95,0.02,,-RA,0.20,VWS V14.00,2013-03-31 16:20:00,
2013-03-31 12:25:00,41.6,40.5,29.82,West,276,3.0,3.8,96,0.03,,-RA,0.21,VWS V14.00,2013-03-31 16:25:00,
2013-03-31 12:30:00,41.8,40.7,29.82,West,274,3.0,3.8,96,0.03,,-RA,0.21,VWS V14.00,2013-03-31 16:30:00,
2013-03-31 12:35:00,41.8,40.7,29.82,West,265,0.0,3.2,96,0.03,,-RA,0.21,VWS V14.00,2013-03-31 16:35:00,
2013-03-31 12:40:00,42.0,41.2,29.82,West,262,0.0,3.2,97,0.02,,-RA,0.21,VWS V14.00,2013-03-31 16:40:00,
2013-03-31 12:45:00,42.0,40.9,29.82,SW,232,2.5,3.2,96,0.02,,-RA,0.21,VWS V14.00,2013-03-31 16:45:00,
2013-03-31 12:50:00,42.0,41.2,29.79,WSW,250,0.0,2.7,97,0.02,,-RA,0.21,VWS V14.00,2013-03-31 16:50:00,
2013-03-31 12:55:00,42.3,41.5,29.79,WSW,250,0.0,0.0,97,0.01,,-RA,0.21,VWS V14.00,2013-03-31 16:55:00,
2013-03-31 13:00:00,42.5,41.7,29.79,WSW,250,0.0,0.0,97,0.01,,-RA,0.21,VWS V14.00,2013-03-31 17:00:00,
2013-03-31 13:05:00,42.7,41.9,29.79,WSW,250,0.0,0.0,97,0.02,,OVC012,0.22,VWS V14.00,2013-03-31 17:05:00,
2013-03-31 13:11:00,42.9,42.1,29.79,WSW,250,0.0,0.0,97,0.02,,OVC012,0.22,VWS V14.00,2013-03-31 17:11:00,
2013-03-31 13:16:00,43.1,42.3,29.79,SW,227,0.0,0.0,97,0.02,,OVC012,0.22,VWS V14.00,2013-03-31 17:16:00,
2013-03-31 13:21:00,43.3,42.5,29.79,WSW,242,0.0,3.2,97,0.02,,OVC014,0.22,VWS V14.00,2013-03-31 17:21:00,
2013-03-31 13:26:00,43.6,42.8,29.79,SW,224,0.0,0.0,97,0.01,,OVC014,0.22,VWS V14.00,2013-03-31 17:26:00,
2013-03-31 13:32:00,43.8,43.0,29.79,South,180,3.0,3.8,97,0.01,,OVC014,0.22,VWS V14.00,2013-03-31 17:32:00,
2013-03-31 13:37:00,44.0,43.5,29.79,SSW,203,3.0,3.2,98,0.01,,OVC014,0.22,VWS V14.00,2013-03-31 17:37:00,
2013-03-31 13:42:00,44.4,43.8,29.79,SSW,202,0.0,0.0,98,0.01,,OVC014,0.22,VWS V14.00,2013-03-31 17:42:00,
2013-03-31 13:47:00,44.8,44.2,29.79,SW,228,0.0,0.0,98,0.01,,OVC014,0.22,VWS V14.00,2013-03-31 17:47:00,
2013-03-31 13:52:00,45.1,44.6,29.79,WNW,286,3.4,3.8,98,0.01,,OVC014,0.22,VWS V14.00,2013-03-31 17:52:00,
2013-03-31 13:57:00,45.1,44.6,29.79,West,261,3.0,3.2,98,0.01,,OVC014,0.22,VWS V14.00,2013-03-31 17:57:00,
2013-03-31 14:02:00,45.5,45.0,29.79,WSW,243,0.0,0.0,98,0.01,,OVC011,0.22,VWS V14.00,2013-03-31 18:02:00,
2013-03-31 14:07:00,45.7,45.2,29.79,SW,224,3.0,3.2,98,0.00,,OVC011,0.22,VWS V14.00,2013-03-31 18:07:00,
2013-03-31 14:12:00,45.9,45.3,29.79,SSW,206,0.0,0.0,98,0.00,,OVC011,0.22,VWS V14.00,2013-03-31 18:12:00,
2013-03-31 14:17:00,46.0,45.5,29.76,SSE,153,3.0,5.9,98,0.00,,OVC011,0.22,VWS V14.00,2013-03-31 18:17:00,
2013-03-31 14:22:00,46.2,45.7,29.76,SSE,168,3.9,6.4,98,0.00,,OVC011,0.22,VWS V14.00,2013-03-31 18:22:00,
2013-03-31 14:28:00,46.2,45.7,29.76,South,191,3.9,4.3,98,0.00,,OVC011,0.22,VWS V14.00,2013-03-31 18:28:00,
2013-03-31 14:33:00,46.4,45.9,29.76,SSW,209,3.4,3.8,98,0.00,,OVC011,0.22,VWS V14.00,2013-03-31 18:33:00,
2013-03-31 14:38:00,46.6,46.1,29.76,SW,217,3.9,5.9,98,0.00,,OVC011,0.22,VWS V14.00,2013-03-31 18:38:00,
2013-03-31 14:43:00,46.6,46.1,29.76,SW,216,3.4,4.8,98,0.00,,OVC011,0.22,VWS V14.00,2013-03-31 18:43:00,
2013-03-31 14:48:00,46.8,46.3,29.76,West,276,3.4,4.8,98,0.00,,OVC009,0.22,VWS V14.00,2013-03-31 18:48:00,
2013-03-31 14:53:00,46.4,45.9,29.76,WSW,257,3.0,4.3,98,0.00,,OVC009,0.22,VWS V14.00,2013-03-31 18:53:00,
2013-03-31 14:58:00,46.6,46.1,29.76,WSW,254,3.4,3.8,98,0.01,,OVC009,0.23,VWS V14.00,2013-03-31 18:58:00,
2013-03-31 15:03:00,46.8,46.3,29.76,SSW,207,3.0,4.8,98,0.01,,OVC022,0.23,VWS V14.00,2013-03-31 19:03:00,
2013-03-31 15:08:00,47.0,46.4,29.76,SW,219,0.0,3.2,98,0.02,,OVC022,0.24,VWS V14.00,2013-03-31 19:08:00,
2013-03-31 15:13:00,47.0,46.4,29.76,SSE,165,3.4,4.3,98,0.02,,OVC022,0.24,VWS V14.00,2013-03-31 19:13:00,
2013-03-31 15:18:00,47.2,46.6,29.76,SSW,194,3.9,4.3,98,0.02,,OVC022,0.24,VWS V14.00,2013-03-31 19:18:00,
2013-03-31 15:23:00,47.5,47.0,29.76,SSE,154,5.9,6.4,98,0.02,,OVC022,0.24,VWS V14.00,2013-03-31 19:23:00,
2013-03-31 15:29:00,48.1,47.5,29.76,SSW,199,3.0,4.8,98,0.02,,OVC022,0.24,VWS V14.00,2013-03-31 19:29:00,
2013-03-31 15:34:00,48.3,47.7,29.76,SSW,207,4.4,5.9,98,0.02,,-RA,0.24,VWS V14.00,2013-03-31 19:34:00,
2013-03-31 15:39:00,48.5,47.9,29.76,South,173,3.9,4.3,98,0.02,,-RA,0.24,VWS V14.00,2013-03-31 19:39:00,
2013-03-31 15:44:00,48.7,48.1,29.76,SSW,209,5.9,8.1,98,0.02,,-RA,0.24,VWS V14.00,2013-03-31 19:44:00,
2013-03-31 15:49:00,48.7,48.1,29.76,South,191,8.4,9.1,98,0.03,,-RA,0.25,VWS V14.00,2013-03-31 19:49:00,
2013-03-31 15:54:00,48.8,48.3,29.76,SSW,212,0.0,4.8,98,0.03,,-RA,0.25,VWS V14.00,2013-03-31 19:54:00,
2013-03-31 15:59:00,49.0,48.5,29.76,South,180,3.9,4.3,98,0.03,,-RA,0.26,VWS V14.00,2013-03-31 19:59:00,
2013-03-31 16:04:00,49.4,48.8,29.76,South,183,6.9,7.5,98,0.03,,-RA,0.26,VWS V14.00,2013-03-31 20:04:00,
2013-03-31 16:09:00,49.8,49.2,29.76,South,171,4.4,4.8,98,0.03,,-RA,0.26,VWS V14.00,2013-03-31 20:09:00,
2013-03-31 16:14:00,49.9,49.4,29.76,SSW,196,5.9,6.4,98,0.02,,-RA,0.26,VWS V14.00,2013-03-31 20:14:00,
2013-03-31 16:19:00,50.1,49.6,29.76,SSW,197,3.4,4.3,98,0.02,,-RA,0.26,VWS V14.00,2013-03-31 20:19:00,
2013-03-31 16:24:00,50.1,49.6,29.76,SSW,200,4.4,4.8,98,0.02,,-RA,0.26,VWS V14.00,2013-03-31 20:24:00,
2013-03-31 16:29:00,50.1,49.6,29.76,South,184,3.9,4.8,98,0.02,,-RA,0.26,VWS V14.00,2013-03-31 20:29:00,
2013-03-31 16:35:00,50.1,49.6,29.79,SSW,202,5.9,6.4,98,0.04,,-RA,0.28,VWS V14.00,2013-03-31 20:35:00,
2013-03-31 16:40:00,50.1,49.6,29.79,WSW,243,3.0,4.8,98,0.04,,-RA,0.28,VWS V14.00,2013-03-31 20:40:00,
2013-03-31 16:45:00,50.5,50.0,29.79,SW,233,3.9,4.8,98,0.05,,-RA,0.29,VWS V14.00,2013-03-31 20:45:00,
2013-03-31 16:50:00,50.7,50.1,29.76,SSW,197,0.0,3.8,98,0.04,,OVC050,0.29,VWS V14.00,2013-03-31 20:50:00,
2013-03-31 16:55:00,50.7,50.1,29.76,SSW,193,3.9,4.3,98,0.05,,OVC050,0.30,VWS V14.00,2013-03-31 20:55:00,
2013-03-31 17:00:00,50.9,50.3,29.76,SSW,199,3.4,4.8,98,0.04,,OVC050,0.30,VWS V14.00,2013-03-31 21:00:00,
2013-03-31 17:05:00,51.1,50.2,29.76,SW,226,3.4,4.8,97,0.04,,OVC055,0.30,VWS V14.00,2013-03-31 21:05:00,
2013-03-31 17:10:00,51.2,50.1,29.76,WSW,238,8.4,9.1,96,0.04,,OVC055,0.30,VWS V14.00,2013-03-31 21:10:00,
2013-03-31 17:15:00,51.2,49.3,29.76,SW,233,4.4,9.7,93,0.04,,OVC055,0.30,VWS V14.00,2013-03-31 21:15:00,
2013-03-31 17:20:00,51.1,48.2,29.76,West,260,5.9,6.4,90,0.04,,OVC055,0.30,VWS V14.00,2013-03-31 21:20:00,
2013-03-31 17:25:00,51.1,48.2,29.76,SW,233,4.4,5.9,90,0.04,,OVC055,0.30,VWS V14.00,2013-03-31 21:25:00,
2013-03-31 17:30:00,50.7,47.6,29.76,SSW,194,8.4,9.7,89,0.04,,OVC055,0.30,VWS V14.00,2013-03-31 21:30:00,
2013-03-31 17:35:00,50.7,46.3,29.76,WSW,251,3.0,7.0,85,0.03,,BKN049,0.30,VWS V14.00,2013-03-31 21:35:00,
2013-03-31 17:40:00,50.7,46.3,29.76,SW,233,4.4,7.0,85,0.02,,BKN049,0.30,VWS V14.00,2013-03-31 21:40:00,
2013-03-31 17:45:00,50.7,46.3,29.76,SW,230,7.9,8.6,85,0.01,,BKN049,0.30,VWS V14.00,2013-03-31 21:45:00,
2013-03-31 17:50:00,50.7,45.7,29.76,South,187,3.9,6.4,83,0.01,,BKN049,0.30,VWS V14.00,2013-03-31 21:50:00,
2013-03-31 17:55:00,50.7,45.4,29.76,SW,224,6.9,7.5,82,0.01,,BKN049,0.30,VWS V14.00,2013-03-31 21:55:00,
2013-03-31 18:00:00,50.7,44.8,29.76,WSW,241,8.9,10.5,80,0.00,,BKN049,0.30,VWS V14.00,2013-03-31 22:00:00,
2013-03-31 18:05:00,50.7,44.4,29.76,WSW,251,11.1,12.1,79,0.00,,BKN027,0.30,VWS V14.00,2013-03-31 22:05:00,
2013-03-31 18:11:00,50.7,44.8,29.76,WSW,252,8.4,10.5,80,0.00,,BKN027,0.30,VWS V14.00,2013-03-31 22:11:00,
2013-03-31 18:16:00,50.7,45.1,29.76,WSW,241,9.6,10.5,81,0.00,,BKN027,0.30,VWS V14.00,2013-03-31 22:16:00,
2013-03-31 18:21:00,50.5,45.2,29.76,SW,223,4.4,12.6,82,0.00,,BKN027,0.30,VWS V14.00,2013-03-31 22:21:00,
2013-03-31 18:26:00,50.3,45.4,29.76,West,268,11.1,13.2,83,0.00,,BKN027,0.30,VWS V14.00,2013-03-31 22:26:00,
2013-03-31 18:31:00,50.3,45.0,29.76,WSW,249,6.4,9.9,82,0.00,,BKN027,0.30,VWS V14.00,2013-03-31 22:31:00,
2013-03-31 18:36:00,50.1,44.5,29.79,WNW,292,9.1,12.1,81,0.00,,BKN034,0.30,VWS V14.00,2013-03-31 22:36:00,
2013-03-31 18:41:00,49.9,44.3,29.79,WNW,286,8.9,10.5,81,0.00,,BKN034,0.30,VWS V14.00,2013-03-31 22:41:00,
2013-03-31 18:46:00,49.6,44.3,29.79,West,267,9.6,10.5,82,0.00,,BKN034,0.30,VWS V14.00,2013-03-31 22:46:00,
2013-03-31 18:51:00,49.6,44.6,29.79,SW,217,9.1,9.9,83,0.00,,BKN034,0.30,VWS V14.00,2013-03-31 22:51:00,
2013-03-31 18:56:00,49.4,44.5,29.79,WSW,237,8.4,10.5,83,0.00,,BKN034,0.30,VWS V14.00,2013-03-31 22:56:00,
2013-03-31 19:01:00,49.4,44.5,29.79,WSW,254,5.9,7.5,83,0.00,,BKN034,0.30,VWS V14.00,2013-03-31 23:01:00,
2013-03-31 19:07:00,49.2,44.3,29.76,WSW,256,6.4,7.5,83,0.00,,SCT020,0.30,VWS V14.00,2013-03-31 23:07:00,
2013-03-31 19:12:00,49.2,44.3,29.76,West,273,5.9,7.0,83,0.00,,SCT020,0.30,VWS V14.00,2013-03-31 23:12:00,
2013-03-31 19:17:00,49.0,44.1,29.76,West,276,6.4,9.7,83,0.00,,SCT020,0.30,VWS V14.00,2013-03-31 23:17:00,
2013-03-31 19:22:00,48.8,44.2,29.76,West,278,8.4,9.1,84,0.00,,SCT020,0.30,VWS V14.00,2013-03-31 23:22:00,
2013-03-31 19:27:00,48.7,44.3,29.76,West,275,7.4,9.1,85,0.00,,SCT020,0.30,VWS V14.00,2013-03-31 23:27:00,
2013-03-31 19:32:00,48.5,44.2,29.79,WNW,286,7.4,9.1,85,0.00,,SCT020,0.30,VWS V14.00,2013-03-31 23:32:00,
2013-03-31 19:37:00,48.3,44.0,29.79,WNW,288,6.9,9.9,85,0.00,,SCT020,0.30,VWS V14.00,2013-03-31 23:37:00,
2013-03-31 19:42:00,48.1,43.8,29.79,WNW,287,9.1,10.5,85,0.00,,SCT020,0.30,VWS V14.00,2013-03-31 23:42:00,
2013-03-31 19:47:00,48.1,43.8,29.79,West,277,6.9,7.5,85,0.00,,SCT020,0.30,VWS V14.00,2013-03-31 23:47:00,
2013-03-31 19:52:00,48.3,44.0,29.79,West,279,6.4,9.1,85,0.00,,SCT020,0.30,VWS V14.00,2013-03-31 23:52:00,
2013-03-31 19:57:00,48.5,43.9,29.79,SW,235,3.9,7.0,84,0.00,,SCT020,0.30,VWS V14.00,2013-03-31 23:57:00,
2013-03-31 20:02:00,48.5,43.5,29.79,SW,230,9.6,10.5,83,0.00,,SCT020,0.30,VWS V14.00,2013-04-01 00:02:00,
2013-03-31 20:07:00,48.7,43.4,29.79,WSW,254,5.9,8.6,82,0.00,,SCT020,0.30,VWS V14.00,2013-04-01 00:07:00,
2013-03-31 20:12:00,48.7,43.1,29.79,West,262,6.4,9.9,81,0.00,,SCT020,0.30,VWS V14.00,2013-04-01 00:12:00,
2013-03-31 20:17:00,48.7,43.1,29.79,West,275,6.4,7.0,81,0.00,,BKN034,0.30,VWS V14.00,2013-04-01 00:17:00,
2013-03-31 20:22:00,48.8,42.6,29.79,West,259,6.9,9.1,79,0.00,,BKN034,0.30,VWS V14.00,2013-04-01 00:22:00,
2013-03-31 20:28:00,48.8,42.0,29.79,West,260,8.9,12.6,77,0.00,,BKN034,0.30,VWS V14.00,2013-04-01 00:28:00,
2013-03-31 20:33:00,48.7,41.8,29.79,WSW,258,6.9,9.9,77,0.00,,BKN065,0.30,VWS V14.00,2013-04-01 00:33:00,
2013-03-31 20:38:00,48.7,41.4,29.79,WNW,289,6.9,9.1,76,0.00,,BKN065,0.30,VWS V14.00,2013-04-01 00:38:00,
2013-03-31 20:43:00,48.8,41.3,29.79,West,265,5.9,6.4,75,0.00,,BKN065,0.30,VWS V14.00,2013-04-01 00:43:00,
2013-03-31 20:48:00,48.7,41.1,29.79,SW,234,5.9,7.5,75,0.00,,BKN065,0.30,VWS V14.00,2013-04-01 00:48:00,
2013-03-31 20:53:00,48.5,40.9,29.79,WNW,292,6.9,10.5,75,0.00,,BKN065,0.30,VWS V14.00,2013-04-01 00:53:00,
2013-03-31 20:58:00,48.3,40.7,29.79,West,259,5.9,7.5,75,0.00,,BKN065,0.30,VWS V14.00,2013-04-01 00:58:00,
2013-03-31 21:03:00,48.1,40.5,29.79,West,259,6.9,10.5,75,0.00,,SCT065,0.30,VWS V14.00,2013-04-01 01:03:00,
2013-03-31 21:08:00,48.1,40.2,29.79,WSW,241,12.1,13.2,74,0.00,,SCT065,0.30,VWS V14.00,2013-04-01 01:08:00,
2013-03-31 21:13:00,48.3,40.0,29.79,West,265,8.9,9.7,73,0.00,,SCT065,0.30,VWS V14.00,2013-04-01 01:13:00,
2013-03-31 21:18:00,48.1,39.9,29.79,WSW,252,5.9,9.1,73,0.00,,SCT065,0.30,VWS V14.00,2013-04-01 01:18:00,
2013-03-31 21:23:00,47.9,39.7,29.79,WSW,252,3.0,9.7,73,0.00,,SCT065,0.30,VWS V14.00,2013-04-01 01:23:00,
2013-03-31 21:28:00,48.1,39.5,29.79,SW,227,9.1,11.5,72,0.00,,SCT065,0.30,VWS V14.00,2013-04-01 01:28:00,
2013-03-31 21:33:00,48.1,39.9,29.79,WSW,252,5.9,7.0,73,0.00,,SCT065,0.30,VWS V14.00,2013-04-01 01:33:00,
2013-03-31 21:38:00,48.1,39.9,29.79,WSW,252,6.4,7.0,73,0.00,,SCT065,0.30,VWS V14.00,2013-04-01 01:38:00,
2013-03-31 21:43:00,48.1,39.9,29.79,WSW,249,5.4,7.0,73,0.00,,SCT065,0.30,VWS V14.00,2013-04-01 01:43:00,
2013-03-31 21:48:00,47.9,39.7,29.79,WSW,241,4.9,7.0,73,0.00,,SCT065,0.30,VWS V14.00,2013-04-01 01:48:00,
2013-03-31 21:53:00,47.9,40.0,29.79,West,276,5.4,7.5,74,0.00,,SCT065,0.30,VWS V14.00,2013-04-01 01:53:00,
2013-03-31 21:58:00,47.7,40.2,29.79,West,260,4.4,5.9,75,0.00,,SCT065,0.30,VWS V14.00,2013-04-01 01:58:00,
2013-03-31 22:03:00,47.3,40.2,29.82,West,278,5.9,7.0,76,0.00,,SCT024,0.30,VWS V14.00,2013-04-01 02:03:00,
2013-03-31 22:09:00,47.3,40.2,29.82,WNW,295,6.4,7.5,76,0.00,,SCT024,0.30,VWS V14.00,2013-04-01 02:09:00,
2013-03-31 22:14:00,47.9,40.7,29.82,WNW,303,12.1,13.2,76,0.00,,SCT024,0.30,VWS V14.00,2013-04-01 02:14:00,
2013-03-31 22:19:00,47.9,40.4,29.82,West,273,8.4,11.0,75,0.00,,BKN024,0.30,VWS V14.00,2013-04-01 02:19:00,
2013-03-31 22:24:00,47.7,40.2,29.82,West,277,6.9,9.7,75,0.00,,BKN024,0.30,VWS V14.00,2013-04-01 02:24:00,
2013-03-31 22:29:00,47.9,40.0,29.82,West,281,6.4,12.6,74,0.00,,BKN024,0.30,VWS V14.00,2013-04-01 02:29:00,
2013-03-31 22:34:00,48.1,39.9,29.82,WNW,285,6.9,12.6,73,0.00,,BKN024,0.30,VWS V14.00,2013-04-01 02:34:00,
2013-03-31 22:39:00,47.7,39.5,29.82,West,280,10.1,11.0,73,0.00,,BKN024,0.30,VWS V14.00,2013-04-01 02:39:00,
2013-03-31 22:44:00,47.5,39.3,29.82,West,263,6.9,8.6,73,0.00,,BKN024,0.30,VWS V14.00,2013-04-01 02:44:00,
2013-03-31 22:49:00,47.7,39.2,29.82,West,271,8.4,9.1,72,0.00,,OVC032,0.30,VWS V14.00,2013-04-01 02:49:00,
2013-03-31 22:54:00,47.5,39.3,29.82,WNW,286,9.6,11.5,73,0.00,,OVC032,0.30,VWS V14.00,2013-04-01 02:54:00,
2013-03-31 22:59:00,47.3,39.1,29.82,WNW,300,5.9,7.5,73,0.00,,OVC032,0.30,VWS V14.00,2013-04-01 02:59:00,
2013-03-31 23:04:00,47.2,39.0,29.79,WNW,288,8.4,9.1,73,0.00,,OVC032,0.30,VWS V14.00,2013-04-01 03:04:00,
2013-03-31 23:10:00,47.2,38.6,29.79,West,281,5.4,10.5,72,0.00,,OVC032,0.30,VWS V14.00,2013-04-01 03:10:00,
2013-03-31 23:15:00,46.8,38.2,29.79,West,267,6.4,10.5,72,0.00,,OVC032,0.30,VWS V14.00,2013-04-01 03:15:00,
2013-03-31 23:20:00,46.6,38.4,29.82,West,260,13.5,14.8,73,0.00,,OVC032,0.30,VWS V14.00,2013-04-01 03:20:00,
2013-03-31 23:25:00,46.6,38.4,29.82,West,265,8.9,12.6,73,0.00,,OVC032,0.30,VWS V14.00,2013-04-01 03:25:00,
2013-03-31 23:30:00,46.6,38.8,29.82,WNW,284,7.9,9.7,74,0.00,,OVC032,0.30,VWS V14.00,2013-04-01 03:30:00,
2013-03-31 23:35:00,46.4,38.2,29.79,WNW,290,8.4,9.7,73,0.00,,OVC032,0.30,VWS V14.00,2013-04-01 03:35:00,
2013-03-31 23:40:00,46.2,37.7,29.79,WSW,244,9.6,12.1,72,0.00,,OVC032,0.30,VWS V14.00,2013-04-01 03:40:00,
2013-03-31 23:45:00,46.2,36.6,29.79,WSW,245,10.6,13.2,69,0.00,,OVC032,0.30,VWS V14.00,2013-04-01 03:45:00,
2013-03-31 23:50:00,46.2,36.3,29.82,West,278,9.1,15.3,68,0.00,,SCT033,0.30,VWS V14.00,2013-04-01 03:50:00,
2013-03-31 23:55:00,46.0,36.1,29.82,West,267,9.6,10.5,68,0.00,,SCT033,0.30,VWS V14.00,2013-04-01 03:55:00,